Flag for U.S.A. Weather past 2 weeks in Bismarck, North Dakota, U.S.A.

Now
45 °F

Overcast.


Feels Like: 39 °F
Forecast: 39 / 61 °F
Wind: 13 mph from Northwest

Location: Bismarck Municipal Airport


UV Index: 5 (Moderate)

Visibility: 10 mi


Pressure: 30.23 "Hg

Humidity: 74%

Dew point: 37 °F

Location of BismarckLocation

Historic Weather in Bismarck

°F

Bismarck temperature yesterday

Maximum temperature yesterday: 77 °F (at 4:52 PM)
Minimum temperature yesterday: 32 °F (at 4:52 AM)
Average temperature yesterday: 55 °F

Past Weeks' High & Low Weather Summary

 TemperatureHumidityPressure
High78 °F (Apr 9, 2:52 PM)96% (Apr 12, 5:52 AM)30.39 "Hg (Apr 12, 5:52 AM)
Low16 °F (Apr 14, 11:52 PM)20% (Apr 9, 2:52 PM)29.51 "Hg (Apr 9, 3:52 PM)
Average42 °F56%29.99 "Hg
* Reported Apr 6 9:52 AM — Apr 21 9:52 AM, Bismarck, Weather by CustomWeather, © 2014

Note: Actual official high and low records may vary slightly from our data, if they occured in-between our weather recording intervals... More about our weather records

Advertising

Historic Weather Conditions — Data for Previous 24 hours

 ConditionsComfort  
Time TempWeatherWind HumidityBarometerVisibility
9:52 AM
Apr 21
45 °FOvercast.13 mph74%30.23 "Hg10 mi
8:52 AM43 °FOvercast.9 mph79%30.22 "Hg10 mi
7:52 AM42 °FOvercast.8 mph76%30.19 "Hg10 mi
6:52 AM40 °FClear.8 mph77%30.14 "Hg10 mi
5:52 AM43 °FClear.12 mph65%30.11 "Hg10 mi
4:52 AM43 °FClear.9 mph62%30.09 "Hg10 mi
3:52 AM45 °FClear.9 mph53%30.08 "Hg10 mi
2:52 AM40 °FClear.6 mph63%30.08 "Hg10 mi
1:52 AM42 °FClear.7 mph57%30.06 "Hg10 mi
12:52 AM44 °FClear.6 mph51%30.05 "Hg10 mi
11:52 PM
Apr 20
47 °FClear.7 mph48%30.03 "Hg10 mi
10:52 PM52 °FClear.5 mph37%30.02 "Hg10 mi
9:52 PM59 °FClear.8 mph27%30.00 "Hg10 mi
8:52 PM64 °FScattered clouds.15 mph21%29.97 "Hg10 mi
7:52 PM66 °FSunny.13 mph23%29.95 "Hg10 mi
6:52 PM69 °FSunny.28 mph22%29.92 "Hg10 mi
5:52 PM75 °FSunny.24 mph21%29.88 "Hg10 mi
4:52 PM77 °FScattered clouds.15 mph20%29.86 "Hg10 mi
3:52 PM75 °FSunny.15 mph21%29.87 "Hg10 mi
2:52 PM75 °FSunny.16 mph21%29.87 "Hg10 mi
1:52 PM74 °FSunny.15 mph20%29.89 "Hg10 mi
12:52 PM72 °FSunny.10 mph24%29.91 "Hg10 mi
11:52 AM68 °FSunny.13 mph25%29.93 "Hg10 mi
Weather by CustomWeather, © 2014

See weather overview